Regional Weather Roundup
Issued by NWS Jackson, KY

Home | Current Version | Previous Version | Text Only | Print | Product List | Glossary Off
Versions: 1 2 3 4 5 6 7 8 9 10 11 12 13 14 15 16 17 18 19 20 21 22 23 24 25 26 27 28

000
ASUS43 KJKL 230710
RWRJKL

EAST KENTUCKY HOURLY WEATHER ROUNDUP
NATIONAL WEATHER SERVICE JACKSON KY
200 AM EST TUE JAN 23 2018

NOTE: "FAIR" INDICATES FEW OR NO CLOUDS BELOW 12,000 FEET WITH
NO SIGNIFICANT WEATHER AND/OR OBSTRUCTIONS TO VISIBILITY.

* THESE REPORTS ARE NOT UNDER NWS QUALITY CONTROL AND MAY NOT
  REPORT WEATHER SUCH AS PRECIPITATION AND FOG.

KYZ079-080-083-085-087-088-110-112-115-119-120-230800
...EASTERN KENTUCKY...

CITY           SKY/WX    TMP DP  RH WIND       PRES   REMARKS
JACKSON        LGT RAIN  54  46  74 W12G29    29.68R
LONDON         LGT RAIN  52  45  77 SW14G26   29.71S
SOMERSET*        N/A     50  32  50 W14G24    29.75R
MONTICELLO*      N/A     50  32  50 W18       29.76R
WILLIAMSBURG*  PTSUNNY   50  48  93 SW10G16   29.73S
MIDDLESBORO*   MOCLDY    55  48  76 SW3       29.72S
HARLAN APT*      N/A     57  41  54 S9G20     29.70S
PIKE CO APT*   LGT RAIN  56  50  78 S6        29.66F
BIG SANDY APT* CLOUDY    57  47  70 SW13G20   29.66S
MOREHEAD APT*  CLOUDY    52  43  71 W7        29.68R
ASHLAND*       MOCLDY    51  47  86 S3        29.65F
$$

KYZ035-036-041-042-044-050-067-078-099-230800
...CENTRAL KENTUCKY...

CITY           SKY/WX    TMP DP  RH WIND       PRES   REMARKS
MT STERLING*   CLOUDY    50  36  57 W12G22    29.70R
FLEMING/MASON* CLOUDY    48  36  63 W14       29.68R
DANVILLE*        N/A     46  32  57 W13G26    29.72R
LEXINGTON        N/A     47  33  58 SW10      29.69R
FRANKFORT        N/A     47  31  53 SW13G23   29.67R
LOUISVILLE     MOCLDY    48  31  51 SW20G29   29.67S
LEBANON*         N/A     46  32  57 SW9       29.71S
GLASGOW*       MOCLDY    45  32  60 W9        29.75R
BOWLING GREEN  MOCLDY    48  32  53 SW17G29   29.76R
$$

KYZ091>093-OHZ055-061-077-WVZ005-015-034-035-042-230800
...SOUTHERN OHIO/WEST VIRGINIA...

CITY           SKY/WX    TMP DP  RH WIND       PRES   REMARKS
COVINGTON        N/A     45  33  63 SW10      29.63S
COLUMBUS       MOCLDY    49  44  83 SW8       29.61R
DAYTON           N/A     40  39  97 W5        29.62R
WILMINGTON     MOCLDY    46  33  60 SW16G30   29.62R
HUNTINGTON     MOCLDY    52  47  83 SW8       29.64F
CHARLESTON       N/A     62  48  60 S13       29.62F
BECKLEY        MOCLDY    52  45  77 S14G25    29.70F
BLUEFIELD      LGT RAIN  51  45  79 S10G26    29.74F
LOGAN CO APT*  CLOUDY    59  48  67 VRB7      29.66S
$$

VAZ002-007-008-TNZ017-027-036-066-071-230800
...SOUTHWEST VIRGINIA/EAST TENNESSEE...

CITY           SKY/WX    TMP DP  RH WIND       PRES   REMARKS
WISE*            N/A     54  48  82 S14G23    29.71F
JONESVILLE*    LGT RAIN  54  50  87 SW7       29.74S
ABINGDON*        N/A     59  50  71 SW8       29.73F
BRISTOL        MOCLDY    53  49  86 CALM      29.72F
MORRISTOWN*    PTSUNNY   57  54  88 W17G25    29.72F
SEVIERVILLE*   PTSUNNY   61  52  72 W13G20    29.73R
KNOXVILLE      MOCLDY    58  50  75 SW31G39   29.74S
LAFOLLETTE*    SUNNY     57  41  54 VRB6G23   29.75S
CROSSVILLE       N/A     47  33  58 W23       29.78F
NASHVILLE        N/A     50  28  42 SW10G26   29.80R
$$

...KEY TO REMARKS...
VSB - VISIBILITY IN MILES
WCI - WIND CHILL INDEX
HX  - HEAT INDEX

$$




USA.gov is the U.S. government's official web portal to all federal, state and local government web resources and services.